EW8328 Weather Reports


Display with metric or nautical units.
time (UTC)temp
F
wind
direction
speed
MPH
gust
MPH
rain 1hr
in
rain 24hr
in
rain mn
in
humidity
%
barometer
mb
20260904161819 63 244 10.0 17.0 0.00 0.57 0.32 70 1008.8
20260904160819 63 246 10.0 18.0 0.00 0.57 0.32 70 1008.6
20260904160318 63 242 11.0 20.0 0.00 0.57 0.32 70 1008.6
20260904155818 63 254 9.0 18.0 0.00 0.57 0.32 70 1008.7
20260904155318 63 245 9.0 18.0 0.00 0.57 0.32 70 1008.7
20260904154818 63 259 10.0 16.0 0.00 0.57 0.32 71 1008.6
20260904154318 63 253 9.0 21.0 0.00 0.57 0.32 72 1008.6
20260904153818 62 247 9.0 20.0 0.00 0.57 0.32 72 1008.5
20260904152818 62 247 12.0 24.0 0.00 0.57 0.32 71 1008.4
20260904152318 63 260 10.0 18.0 0.00 0.57 0.32 71 1008.4
20260904151319 62 251 12.0 22.0 0.00 0.57 0.32 72 1008.4
20260904150818 62 255 13.0 23.0 0.00 0.57 0.32 74 1008.4
20260904145818 62 242 13.0 21.0 0.00 0.57 0.32 74 1008.5
20260904145318 61 257 14.0 21.0 0.00 0.57 0.32 74 1008.6
20260904144819 62 243 14.0 26.0 0.00 0.57 0.32 73 1008.4
20260904144318 62 243 12.0 21.0 0.00 0.57 0.32 73 1008.5
20260904143819 62 242 10.0 25.0 0.00 0.57 0.32 73 1008.5
20260904143318 62 245 10.0 17.0 0.00 0.57 0.32 73 1008.5
20260904142818 62 246 10.0 20.0 0.00 0.57 0.32 72 1008.6
20260904142318 62 251 11.0 23.0 0.00 0.57 0.32 73 1008.5
20260904141818 61 261 11.0 20.0 0.00 0.57 0.32 75 1008.7
20260904141318 61 241 10.0 20.0 0.00 0.57 0.32 75 1008.9
20260904140820 61 247 12.0 18.0 0.00 0.57 0.32 75 1008.7
20260904140317 61 247 10.0 21.0 0.00 0.57 0.32 74 1008.6
20260904135818 61 246 13.0 25.0 0.00 0.57 0.32 74 1008.5
20260904135318 61 239 11.0 21.0 0.00 0.57 0.32 74 1008.5
20260904134818 61 258 11.0 17.0 0.00 0.57 0.32 74 1008.4
20260904134318 61 243 13.0 20.0 0.00 0.57 0.32 73 1008.8
20260904133818 61 239 11.0 22.0 0.00 0.57 0.32 74 1008.5
20260904133318 61 258 9.0 22.0 0.00 0.57 0.32 75 1008.5
20260904132820 61 256 13.0 21.0 0.00 0.57 0.32 75 1008.5
20260904132318 61 249 10.0 17.0 0.00 0.57 0.32 77 1008.5
20260904131818 61 247 12.0 22.0 0.00 0.57 0.32 78 1008.4
20260904131318 60 234 14.0 22.0 0.00 0.57 0.32 78 1008.4
20260904130817 61 242 11.0 20.0 0.00 0.57 0.32 79 1008.4
20260904125819 61 238 9.0 18.0 0.00 0.57 0.32 78 1008.2
20260904125318 61 249 12.0 22.0 0.00 0.57 0.32 77 1008.1
20260904124819 61 254 13.0 21.0 0.00 0.57 0.32 78 1008.0
20260904123818 61 256 10.0 18.0 0.02 0.57 0.32 78 1007.9
20260904122318 60 244 10.0 20.0 0.02 0.57 0.32 80 1007.9
20260904121819 60 245 9.0 20.0 0.02 0.57 0.32 79 1007.9
20260904121318 61 236 9.0 18.0 0.02 0.57 0.32 79 1007.9
20260904120818 60 251 12.0 22.0 0.02 0.57 0.32 80 1007.8
20260904120318 60 257 12.0 21.0 0.02 0.57 0.32 84 1007.6
20260904114818 59 258 10.0 20.0 0.02 0.57 0.32 84 1007.3
20260904113819 61 258 10.0 16.0 0.00 0.56 0.31 75 1007.2
20260904113319 62 249 12.0 21.0 0.00 0.56 0.31 74 1007.1
20260904112318 61 234 10.0 16.0 0.00 0.56 0.31 75 1006.7
20260904111818 61 243 10.0 22.0 0.00 0.56 0.31 75 1006.8
20260904111318 61 241 10.0 20.0 0.00 0.56 0.31 75 1006.8
20260904110820 61 247 9.0 16.0 0.00 0.56 0.31 75 1006.7
20260904110319 61 248 10.0 20.0 0.00 0.56 0.31 76 1006.5
20260904105818 61 251 8.0 20.0 0.00 0.56 0.31 75 1006.5
20260904105318 61 244 10.0 20.0 0.00 0.56 0.31 76 1006.6
20260904104818 61 253 10.0 20.0 0.00 0.56 0.31 77 1006.5
20260904104318 61 244 11.0 20.0 0.00 0.56 0.31 76 1006.5
20260904103317 61 251 9.0 20.0 0.00 0.56 0.31 77 1006.5
20260904102818 61 249 9.0 20.0 0.00 0.56 0.31 77 1006.6
20260904102318 61 244 11.0 20.0 0.00 0.56 0.31 76 1006.5
20260904101819 61 249 9.0 22.0 0.00 0.56 0.31 76 1006.4
20260904101318 61 240 12.0 22.0 0.00 0.56 0.31 77 1006.2
20260904100818 61 249 10.0 20.0 0.00 0.56 0.31 77 1006.3
20260904100317 61 248 10.0 22.0 0.00 0.56 0.31 77 1006.2
20260904095818 61 254 10.0 23.0 0.00 0.56 0.31 77 1006.0
20260904095318 60 241 11.0 21.0 0.00 0.56 0.31 78 1006.0
20260904094318 60 247 7.0 29.0 0.00 0.56 0.31 81 1005.9
20260904093818 59 248 13.0 25.0 0.00 0.56 0.31 80 1006.2
20260904093318 59 250 10.0 18.0 0.00 0.56 0.31 82 1006.2
20260904092818 59 249 10.0 22.0 0.00 0.56 0.31 83 1005.9
20260904092318 59 248 10.0 22.0 0.00 0.56 0.31 83 1005.9
20260904091818 58 259 10.0 18.0 0.00 0.56 0.31 84 1005.9
20260904091318 58 242 11.0 18.0 0.00 0.56 0.31 83 1005.8
20260904090818 58 251 10.0 20.0 0.00 0.56 0.31 82 1005.8
20260904090317 58 247 10.0 20.0 0.00 0.56 0.31 83 1005.6
20260904085818 59 246 7.0 18.0 0.00 0.56 0.31 84 1005.6
20260904085317 58 248 11.0 21.0 0.00 0.56 0.31 84 1005.6
20260904084818 59 236 14.0 21.0 0.00 0.56 0.31 84 1005.6
20260904084318 59 243 11.0 18.0 0.00 0.56 0.31 84 1005.4
20260904083818 59 238 9.0 17.0 0.00 0.56 0.31 84 1005.4
20260904083318 59 246 10.0 17.0 0.00 0.56 0.31 84 1005.5
20260904082818 59 256 10.0 18.0 0.00 0.56 0.31 83 1005.4
20260904082317 59 243 9.0 23.0 0.00 0.56 0.31 84 1005.5
20260904081319 59 251 10.0 18.0 0.00 0.56 0.31 85 1005.4
20260904080817 59 249 8.0 15.0 0.00 0.56 0.31 85 1005.4
20260904080318 59 247 11.0 22.0 0.00 0.56 0.31 85 1005.3
20260904075818 59 256 9.0 18.0 0.00 0.56 0.31 86 1005.4
20260904075317 58 254 10.0 18.0 0.00 0.56 0.31 87 1005.2
20260904074817 58 247 11.0 20.0 0.00 0.57 0.31 88 1005.1
20260904074318 58 250 9.0 18.0 0.00 0.57 0.31 89 1005.2
20260904073817 58 242 10.0 18.0 0.00 0.57 0.31 89 1005.1
20260904073317 58 239 10.0 18.0 0.00 0.57 0.31 89 1005.2
20260904072818 58 239 9.0 15.0 0.00 0.57 0.31 89 1005.0
20260904072318 58 251 7.0 17.0 0.00 0.57 0.31 88 1005.0
20260904071818 58 247 10.0 15.0 0.00 0.57 0.31 89 1005.0
20260904071317 58 249 9.0 21.0 0.00 0.57 0.31 89 1005.0
20260904070817 58 249 9.0 15.0 0.00 0.57 0.31 89 1005.0
20260904070317 58 249 11.0 17.0 0.00 0.57 0.31 90 1005.0
20260904065318 57 247 10.0 17.0 0.00 0.57 0.31 91 1004.9
20260904063818 57 248 7.0 15.0 0.00 0.58 0.31 91 1004.7
20260904063317 57 239 8.0 16.0 0.00 0.58 0.31 91 1004.5
20260904062818 57 243 11.0 18.0 0.00 0.58 0.31 91 1004.4
20260904062317 57 250 9.0 17.0 0.00 0.58 0.31 91 1004.5
20260904061819 57 244 9.0 16.0 0.00 0.58 0.31 91 1004.6
20260904061318 57 253 9.0 14.0 0.00 0.58 0.31 92 1004.9
20260904060818 57 244 11.0 20.0 0.00 0.58 0.31 92 1004.7
20260904060318 57 264 9.0 18.0 0.00 0.58 0.31 93 1004.7
20260904055317 57 250 9.0 16.0 0.00 0.58 0.31 93 1004.5
20260904054318 57 247 9.0 20.0 0.00 0.58 0.31 94 1004.5
20260904053818 57 252 7.0 16.0 0.00 0.58 0.31 94 1004.5
20260904053318 57 239 7.0 15.0 0.00 0.58 0.31 94 1004.6
20260904052818 57 247 7.0 15.0 0.00 0.58 0.31 94 1004.6
20260904051817 57 251 7.0 15.0 0.00 0.58 0.31 95 1004.5
20260904051317 57 248 7.0 14.0 0.00 0.58 0.31 95 1004.5
20260904050817 57 254 6.0 12.0 0.00 0.58 0.31 95 1004.4
20260904050318 58 263 8.0 17.0 0.00 0.58 0.31 95 1004.4
20260904045818 58 255 7.0 13.0 0.00 0.58 0.31 96 1004.5
20260904045317 58 250 7.0 13.0 0.00 0.58 0.31 96 1004.6
20260904044819 58 252 6.0 10.0 0.00 0.58 0.31 96 1004.4
20260904044317 57 245 6.0 10.0 0.00 0.58 0.31 96 1004.5
20260904043819 58 255 5.0 10.0 0.00 0.58 0.31 95 1004.4
20260904043318 57 239 5.0 8.0 0.00 0.58 0.31 96 1004.5
20260904042817 57 245 4.0 9.0 0.00 0.58 0.31 96 1004.5
20260904042318 57 251 3.0 7.0 0.00 0.58 0.31 96 1004.5
20260904041817 58 244 3.0 8.0 0.00 0.58 0.31 96 1004.3
20260904041317 58 249 4.0 7.0 0.00 0.58 0.31 96 1004.3
20260904040818 58 242 5.0 7.0 0.00 0.58 0.31 96 1004.4
20260904040317 58 229 3.0 8.0 0.00 0.58 0.31 96 1004.4
20260904035817 58 255 4.0 7.0 0.00 0.58 0.31 96 1004.5
20260904035318 58 250 4.0 7.0 0.00 0.58 0.31 96 1004.7
20260904034819 58 252 6.0 9.0 0.00 0.58 0.31 96 1004.8
20260904034318 58 244 5.0 12.0 0.00 0.58 0.31 96 1004.7
20260904033818 58 249 5.0 8.0 0.00 0.58 0.31 96 1004.7
20260904033317 58 243 4.0 10.0 0.00 0.58 0.31 96 1004.8
20260904032317 57 252 4.0 6.0 0.00 0.58 0.31 96 1004.9
20260904031817 57 247 3.0 6.0 0.00 0.58 0.31 96 1005.0
20260904031317 57 227 2.0 3.0 0.00 0.58 0.31 96 1004.7
20260904030819 57 244 0.0 3.0 0.00 0.58 0.31 96 1004.8
20260904030317 57 274 1.0 2.0 0.00 0.58 0.31 96 1004.9
20260904025818 57 248 1.0 3.0 0.01 0.58 0.31 96 1004.7
20260904025317 57 248 1.0 3.0 0.01 0.58 0.31 96 1004.8
20260904024817 57 246 1.0 3.0 0.01 0.58 0.31 96 1004.9
20260904024317 57 244 3.0 7.0 0.02 0.58 0.31 96 1005.1
20260904023817 57 248 1.0 3.0 0.02 0.58 0.31 96 1005.2
20260904023317 57 245 3.0 5.0 0.03 0.58 0.31 96 1005.4
20260904022817 57 244 2.0 3.0 0.04 0.58 0.31 96 1005.5
20260904022318 57 243 2.0 3.0 0.06 0.58 0.31 96 1005.4
20260904021817 57 174 1.0 3.0 0.07 0.58 0.31 96 1005.3
20260904021317 57 223 2.0 3.0 0.08 0.58 0.31 96 1005.4
20260904020817 56 239 0.0 1.0 0.09 0.58 0.31 96 1005.4
20260904020317 56 239 0.0 1.0 0.10 0.58 0.31 96 1005.4
20260904015817 56 239 0.0 1.0 0.10 0.57 0.30 96 1005.5
20260904014817 56 239 0.0 0.0 0.12 0.57 0.30 96 1005.5
20260904014318 56 239 0.0 2.0 0.12 0.57 0.29 96 1005.6
20260904013817 56 239 2.0 3.0 0.12 0.56 0.28 96 1005.9
20260904013317 56 239 0.0 1.0 0.13 0.55 0.28 96 1005.8
20260904012317 56 239 1.0 2.0 0.11 0.53 0.25 96 1005.8
20260904011817 56 239 1.0 2.0 0.10 0.51 0.24 96 1005.9
20260904010317 56 239 1.0 1.0 0.09 0.48 0.20 95 1006.2
20260904005817 56 239 0.0 0.0 0.08 0.47 0.20 96 1006.0
20260904005317 56 239 0.0 2.0 0.08 0.46 0.19 95 1005.9
20260904004817 56 239 0.0 1.0 0.08 0.46 0.18 96 1006.0
20260904003817 56 239 0.0 2.0 0.09 0.44 0.17 95 1006.4
20260904003317 56 239 0.0 2.0 0.08 0.43 0.15 95 1006.7
20260904002817 56 239 1.0 2.0 0.09 0.43 0.15 95 1006.9
20260904002316 56 239 0.0 2.0 0.10 0.42 0.14 95 1006.7
20260904001818 56 239 0.0 0.0 0.10 0.42 0.13 95 1006.6
20260904001318 56 239 0.0 0.0 0.10 0.41 0.13 95 1006.8
20260904000817 56 239 1.0 20.0 0.11 0.41 0.13 95 1006.9
20260904000318 56 239 0.0 2.0 0.11 0.40 0.12 95 1006.8
20260903235817 56 239 0.0 2.0 0.12 0.40 0.12 95 1006.9
20260903234817 56 239 0.0 2.0 0.13 0.39 0.10 95 1007.4
20260903233318 56 239 0.0 2.0 0.13 0.35 0.07 95 1007.8
20260903232818 56 239 1.0 2.0 0.12 0.34 0.06 95 1007.9
20260903232317 56 239 1.0 2.0 0.11 0.32 0.04 95 1008.1
20260903231818 56 239 1.0 3.0 0.11 0.31 0.03 94 1008.2
20260903231317 56 239 1.0 3.0 0.12 0.31 0.02 94 1008.2
20260903230859 56 239 0.0 2.0 0.12 0.30 0.02 94 1008.2
20260903230317 56 239 0.0 2.0 0.13 0.29 0.01 94 1008.2
20260903225317 56 239 0.0 1.0 0.13 0.28 0.28 94 1008.4
20260903224817 56 239 0.0 2.0 0.13 0.27 0.27 94 1008.5
20260903223317 56 239 0.0 2.0 0.13 0.24 0.24 94 1008.7
20260903222817 56 239 0.0 1.0 0.13 0.23 0.23 94 1008.7
20260903221817 57 239 0.0 2.0 0.11 0.20 0.20 94 1008.8
20260903220317 57 261 1.0 3.0 0.07 0.18 0.17 93 1009.0
20260903215817 57 261 2.0 5.0 0.06 0.17 0.15 93 1009.0
20260903215317 57 349 1.0 3.0 0.06 0.17 0.15 92 1009.0
20260903214317 58 298 1.0 3.0 0.04 0.15 0.13 92 1009.1
20260903213817 58 325 2.0 6.0 0.02 0.13 0.12 92 1009.1
20260903213318 59 343 3.0 6.0 0.02 0.13 0.11 91 1009.3
20260903212817 59 243 2.0 5.0 0.02 0.12 0.10 91 1009.3
20260903212317 60 342 2.0 5.0 0.02 0.12 0.10 91 1009.3
20260903211817 60 244 2.0 9.0 0.01 0.11 0.09 92 1009.4
20260903210817 60 247 3.0 6.0 0.01 0.11 0.09 92 1009.5
20260903210317 60 232 3.0 7.0 0.01 0.11 0.09 92 1009.4
20260903205317 60 249 3.0 7.0 0.02 0.11 0.09 92 1009.5
20260903204817 60 226 3.0 7.0 0.02 0.11 0.09 92 1009.5
20260903204317 60 215 3.0 8.0 0.02 0.11 0.09 91 1009.5
20260903203317 61 210 3.0 9.0 0.01 0.10 0.09 91 1009.6
20260903202817 61 228 6.0 9.0 0.01 0.10 0.09 91 1009.7
20260903202318 61 219 5.0 9.0 0.01 0.10 0.09 91 1009.7
20260903201818 61 221 5.0 10.0 0.01 0.10 0.09 90 1009.9
20260903201317 61 218 6.0 12.0 0.02 0.10 0.09 91 1009.9
20260903200817 61 218 5.0 9.0 0.02 0.10 0.09 91 1010.1
20260903200317 61 221 4.0 9.0 0.02 0.10 0.09 90 1010.0
20260903195817 61 224 4.0 9.0 0.02 0.10 0.09 90 1010.0
20260903195316 61 240 3.0 7.0 0.02 0.09 0.08 90 1010.0
20260903194818 61 229 2.0 5.0 0.02 0.09 0.08 91 1009.9
20260903193317 61 210 3.0 6.0 0.03 0.09 0.08 90 1009.9
20260903192817 61 230 3.0 7.0 0.03 0.09 0.08 91 1009.9
20260903192317 61 217 3.0 7.0 0.03 0.09 0.08 91 1010.0
20260903191319 62 198 3.0 9.0 0.03 0.09 0.07 91 1010.1
20260903190816 62 187 5.0 8.0 0.03 0.09 0.07 91 1010.1
20260903190317 62 209 2.0 3.0 0.03 0.09 0.07 92 1010.1
20260903185817 62 203 2.0 5.0 0.02 0.08 0.06 91 1010.2
20260903185317 62 214 2.0 5.0 0.02 0.08 0.06 91 1010.4
20260903184817 62 215 3.0 8.0 0.02 0.08 0.06 91 1010.5
20260903183317 62 231 2.0 3.0 0.02 0.06 0.05 91 1010.6
20260903182317 62 268 2.0 5.0 0.02 0.06 0.05 90 1010.6
20260903181817 63 227 2.0 6.0 0.02 0.06 0.05 90 1010.7
20260903181317 63 246 3.0 8.0 0.01 0.06 0.04 90 1010.7
20260903180818 63 227 3.0 6.0 0.01 0.06 0.04 89 1010.9
20260903180317 63 235 4.0 7.0 0.01 0.06 0.04 89 1010.8
20260903175817 63 226 3.0 7.0 0.01 0.06 0.04 89 1010.8
20260903175316 63 238 5.0 10.0 0.01 0.06 0.04 88 1010.8
20260903174818 63 245 6.0 12.0 0.01 0.06 0.04 88 1011.0
20260903174317 63 226 7.0 14.0 0.01 0.06 0.04 88 1011.2
20260903173817 63 232 6.0 12.0 0.00 0.05 0.03 88 1011.3
20260903173317 63 252 3.0 9.0 0.00 0.05 0.03 88 1011.3
20260903172817 64 240 3.0 7.0 0.00 0.05 0.03 88 1011.3
20260903172317 64 234 5.0 9.0 0.00 0.05 0.03 88 1011.3
20260903171817 64 245 4.0 9.0 0.00 0.05 0.03 88 1011.2
20260903171316 64 254 2.0 7.0 0.00 0.05 0.03 87 1011.1
20260903170816 64 240 4.0 7.0 0.00 0.05 0.03 87 1011.0
20260903170317 64 256 4.0 8.0 0.00 0.05 0.03 87 1011.1
20260903165817 64 250 3.0 7.0 0.00 0.05 0.03 86 1011.0
20260903165318 64 242 3.0 6.0 0.00 0.05 0.03 87 1010.9
20260903164817 64 261 3.0 7.0 0.00 0.05 0.03 86 1010.9
20260903164317 64 237 5.0 8.0 0.00 0.05 0.03 86 1011.1
20260903163817 64 229 5.0 10.0 0.00 0.05 0.03 86 1011.2
20260903163316 64 232 5.0 9.0 0.00 0.05 0.03 85 1011.4
20260903162818 64 245 6.0 12.0 0.00 0.05 0.03 85 1011.6
20260903162317 64 236 6.0 12.0 0.00 0.05 0.03 85 1011.6